Volver al catálogo

STARLINK-34135

ActivoComunicacionesVLEO
NORAD 63964·PAYLOAD·🇺🇸 United States

Lanzado May 13, 2025 desde Cape Canaveral Space Force Station

Loading…

Próximos Pases (próximas 24 horas)

TLE

ActualizadoSource: CelesTrak SupGP

Época: Sep 14, 2026, 21:43 UTC

1 63964C 25099N   26257.90534722 -.00013567  00000+0 -49129-3 0  2575
2 63964  42.9997 187.5437 0001429 261.8865 159.5679 15.27591622    10

Sigue STARLINK-34135 en tiempo real con AllMySat

Download on the App Store